Location: NJAA Observatory
(40.6819°N, 74.8979°W)
Time: 20:47:03
(UTC-04:00)

Cosmos 2263 Rocket - Visible Passes

Search period start: 22 July 2017 00:00
Search period end: 01 August 2017 00:00
Orbit: 823 x 849 km, 71.0° (Epoch: 22 July)

Date Brightness Start Highest point End Pass type
(mag) Time Alt. Az. Time Alt. Az. Time Alt. Az.
22 Jul 3.9 02:25:03 10° N 02:30:02 30° ENE 02:35:00 10° ESE visible
22 Jul 2.6 04:08:46 10° NW 04:14:02 40° WSW 04:18:23 15° S visible
23 Jul 4.0 02:08:25 10° N 02:13:16 28° NE 02:18:07 10° ESE visible
23 Jul 2.5 03:51:59 10° NW 03:57:21 44° WSW 04:00:15 25° SSW visible
24 Jul 4.1 01:51:47 10° N 01:56:30 26° NE 02:00:53 11° ESE visible
24 Jul 2.4 03:35:13 10° NW 03:40:39 48° WSW 03:42:29 35° SSW visible
25 Jul 4.1 01:35:09 10° N 01:39:43 24° NE 01:43:22 14° E visible
25 Jul 2.3 03:18:27 10° NNW 03:23:57 52° WSW 03:24:59 46° SW visible
26 Jul 4.2 01:18:31 10° N 01:22:57 23° NE 01:26:03 15° E visible
26 Jul 2.2 03:01:41 10° NNW 03:07:15 57° WSW 03:07:40 55° SW visible
27 Jul 4.2 01:01:55 10° N 01:06:10 21° NE 01:08:52 16° E visible
27 Jul 2.2 02:44:56 10° NNW 02:50:30 62° WSW 02:50:30 62° WSW visible
28 Jul 4.3 00:45:18 10° N 00:49:23 20° NE 00:51:47 15° E visible
28 Jul 2.2 02:28:11 10° NNW 02:33:26 65° W 02:33:26 65° W visible
29 Jul 4.3 00:28:42 10° N 00:32:35 18° NE 00:34:49 15° ENE visible
29 Jul 2.3 02:11:26 10° NNW 02:16:28 66° WNW 02:16:28 66° WNW visible
30 Jul 4.3 00:12:08 10° N 00:15:48 17° NE 00:17:54 14° ENE visible
30 Jul 2.4 01:54:42 10° NNW 01:59:34 65° NW 01:59:34 65° NW visible
30 Jul 4.4 23:55:35 10° NNE 23:59:00 16° NE 00:01:04 13° ENE visible
31 Jul 2.5 01:37:58 10° NNW 01:42:43 63° NNW 01:42:43 63° NNW visible
31 Jul 4.4 23:39:03 10° NNE 23:42:12 15° NE 23:44:17 12° ENE visible
